| time (UTC) | temp C | wind direction | speed KPH | gust KPH | rain 1hr cm | rain 24hr cm | rain mn cm | humidity % | barometer mb |
| 20260506211937 | 15 | 257 | 4.8 | 12.9 | 0.00 | 0.00 | 0.00 | 86 | 1007.3 |
| 20260506211523 | 15 | 146 | 0.0 | 16.1 | 0.03 | 0.25 | 0.25 | 90 | 1007.1 |
| 20260506211418 | 15 | 299 | 4.8 | 16.1 | 0.00 | 0.00 | 0.00 | 85 | 1007.3 |
| 20260506210012 | 15 | 184 | 1.6 | 14.5 | 0.00 | 0.23 | 0.23 | 89 | 1007.4 |
| 20260506205350 | 15 | 299 | 6.4 | 17.7 | 0.00 | 0.00 | 0.00 | 84 | 1007.4 |
| 20260506204845 | 15 | 299 | 4.8 | 17.7 | 0.00 | 0.00 | 0.00 | 84 | 1007.4 |
| 20260506204515 | 15 | 159 | 1.6 | 8.0 | 0.03 | 0.23 | 0.23 | 90 | 1007.2 |
| 20260506204338 | 15 | 291 | 3.2 | 12.9 | 0.00 | 0.00 | 0.00 | 85 | 1007.7 |
| 20260506203826 | 15 | 284 | 4.8 | 16.1 | 0.00 | 0.00 | 0.00 | 84 | 1007.7 |
| 20260506203319 | 15 | 274 | 6.4 | 16.1 | 0.00 | 0.00 | 0.00 | 84 | 1007.7 |
| 20260506203023 | 15 | 149 | 4.8 | 17.7 | 0.03 | 0.23 | 0.23 | 90 | 1007.3 |
| 20260506202812 | 15 | 304 | 6.4 | 24.1 | 0.00 | 0.00 | 0.00 | 85 | 1007.7 |
| 20260506202258 | 15 | 326 | 6.4 | 24.1 | 0.00 | 0.00 | 0.00 | 85 | 1007.7 |
| 20260506201753 | 15 | 258 | 6.4 | 20.9 | 0.00 | 0.00 | 0.00 | 84 | 1007.7 |
| 20260506201526 | 15 | 350 | 3.2 | 16.1 | 0.10 | 0.23 | 0.23 | 90 | 1007.5 |
| 20260506201253 | 15 | 304 | 6.4 | 27.4 | 0.00 | 0.00 | 0.00 | 85 | 1007.9 |
| 20260506200752 | 15 | 299 | 6.4 | 27.4 | 0.00 | 0.00 | 0.00 | 85 | 1007.9 |
| 20260506200250 | 15 | 260 | 6.4 | 22.5 | 0.00 | 0.00 | 0.00 | 85 | 1007.9 |
| 20260506200027 | 15 | 285 | 1.6 | 12.9 | 0.13 | 0.23 | 0.23 | 90 | 1007.6 |
| 20260506195746 | 15 | 330 | 4.8 | 22.5 | 0.00 | 0.00 | 0.00 | 85 | 1007.9 |
| 20260506195242 | 15 | 248 | 3.2 | 11.3 | 0.00 | 0.00 | 0.00 | 85 | 1007.9 |
| 20260506194742 | 15 | 261 | 3.2 | 12.9 | 0.00 | 0.00 | 0.00 | 85 | 1007.9 |
| 20260506194513 | 15 | 152 | 1.6 | 6.4 | 0.15 | 0.20 | 0.20 | 90 | 1007.7 |
| 20260506193232 | 15 | 271 | 8.0 | 20.9 | 0.00 | 0.00 | 0.00 | 83 | 1007.9 |
| 20260506193018 | 15 | 140 | 3.2 | 19.3 | 0.20 | 0.20 | 0.20 | 88 | 1007.8 |
| 20260506192732 | 15 | 268 | 6.4 | 20.9 | 0.00 | 0.00 | 0.00 | 83 | 1008.0 |
| 20260506192230 | 15 | 291 | 4.8 | 20.9 | 0.00 | 0.00 | 0.00 | 82 | 1008.0 |
| 20260506191730 | 15 | 288 | 8.0 | 20.9 | 0.00 | 0.00 | 0.00 | 81 | 1008.0 |
| 20260506191523 | 15 | 140 | 4.8 | 19.3 | 0.13 | 0.13 | 0.13 | 87 | 1007.9 |
| 20260506191230 | 15 | 302 | 8.0 | 14.5 | 0.00 | 0.00 | 0.00 | 81 | 1008.1 |
| 20260506190722 | 15 | 264 | 8.0 | 14.5 | 0.00 | 0.00 | 0.00 | 80 | 1008.1 |
| 20260506190218 | 15 | 295 | 4.8 | 14.5 | 0.00 | 0.00 | 0.00 | 80 | 1008.1 |
| 20260506190034 | 15 | 187 | 3.2 | 14.5 | 0.10 | 0.10 | 0.10 | 86 | 1007.9 |
| 20260506185700 | 15 | 336 | 3.2 | 12.9 | 0.00 | 0.00 | 0.00 | 80 | 1008.4 |
| 20260506185159 | 15 | 233 | 3.2 | 12.9 | 0.00 | 0.00 | 0.00 | 79 | 1008.4 |
| 20260506184650 | 15 | 267 | 4.8 | 12.9 | 0.00 | 0.00 | 0.00 | 78 | 1008.4 |
| 20260506184529 | 15 | 236 | 1.6 | 14.5 | 0.05 | 0.05 | 0.05 | 85 | 1008.2 |
| 20260506184145 | 16 | 295 | 6.4 | 20.9 | 0.00 | 0.00 | 0.00 | 76 | 1008.5 |
| 20260506183629 | 16 | 336 | 4.8 | 20.9 | 0.00 | 0.00 | 0.00 | 73 | 1008.5 |
| 20260506183121 | 16 | 328 | 6.4 | 17.7 | 0.00 | 0.00 | 0.00 | 70 | 1008.5 |
| 20260506183016 | 16 | 201 | 4.8 | 19.3 | 0.00 | 0.00 | 0.00 | 77 | 1008.4 |
| 20260506182612 | 16 | 308 | 11.3 | 22.5 | 0.00 | 0.00 | 0.00 | 69 | 1008.8 |
| 20260506182104 | 17 | 332 | 11.3 | 27.4 | 0.00 | 0.00 | 0.00 | 68 | 1008.8 |
| 20260506181603 | 17 | 30 | 11.3 | 27.4 | 0.00 | 0.00 | 0.00 | 67 | 1008.8 |
| 20260506181521 | 17 | 349 | 3.2 | 19.3 | 0.00 | 0.00 | 0.00 | 74 | 1008.5 |
| 20260506181102 | 17 | 280 | 11.3 | 25.7 | 0.00 | 0.00 | 0.00 | 65 | 1008.7 |
| 20260506180559 | 18 | 246 | 11.3 | 25.7 | 0.00 | 0.00 | 0.00 | 63 | 1008.7 |
| 20260506180054 | 18 | 315 | 11.3 | 20.9 | 0.00 | 0.00 | 0.00 | 62 | 1008.7 |
| 20260506180026 | 18 | 304 | 3.2 | 12.9 | 0.00 | 0.00 | 0.00 | 69 | 1008.6 |
| 20260506175553 | 18 | 0 | 11.3 | 32.2 | 0.00 | 0.00 | 0.00 | 60 | 1008.8 |
| 20260506175039 | 18 | 288 | 11.3 | 32.2 | 0.00 | 0.00 | 0.00 | 60 | 1008.8 |
| 20260506174535 | 19 | 326 | 12.9 | 24.1 | 0.00 | 0.00 | 0.00 | 58 | 1008.8 |
| 20260506174527 | 18 | 9 | 8.0 | 25.7 | 0.00 | 0.00 | 0.00 | 66 | 1008.7 |
| 20260506174032 | 19 | 224 | 12.9 | 25.7 | 0.00 | 0.00 | 0.00 | 59 | 1008.7 |
| 20260506173034 | 20 | 177 | 4.8 | 22.5 | 0.00 | 0.00 | 0.00 | 63 | 1008.6 |
| 20260506173031 | 20 | 244 | 11.3 | 27.4 | 0.00 | 0.00 | 0.00 | 56 | 1008.7 |
| 20260506172525 | 20 | 308 | 12.9 | 27.4 | 0.00 | 0.00 | 0.00 | 55 | 1008.9 |
| 20260506172025 | 20 | 241 | 14.5 | 32.2 | 0.00 | 0.00 | 0.00 | 55 | 1008.9 |
| 20260506171520 | 20 | 309 | 6.4 | 27.4 | 0.00 | 0.00 | 0.00 | 61 | 1008.8 |
| 20260506171514 | 20 | 305 | 14.5 | 32.2 | 0.00 | 0.00 | 0.00 | 54 | 1008.9 |
| 20260506171008 | 21 | 325 | 11.3 | 25.7 | 0.00 | 0.00 | 0.00 | 53 | 1008.8 |
| 20260506170503 | 20 | 340 | 9.7 | 24.1 | 0.00 | 0.00 | 0.00 | 55 | 1008.8 |
| 20260506170024 | 20 | 194 | 9.7 | 25.7 | 0.00 | 0.00 | 0.00 | 62 | 1008.8 |
| 20260506164955 | 21 | 179 | 12.9 | 25.7 | 0.00 | 0.00 | 0.00 | 53 | 1008.8 |
| 20260506164524 | 21 | 132 | 12.9 | 29.0 | 0.00 | 0.00 | 0.00 | 59 | 1008.7 |
| 20260506164453 | 21 | 250 | 9.7 | 24.1 | 0.00 | 0.00 | 0.00 | 53 | 1008.8 |
| 20260506163453 | 20 | 299 | 12.9 | 24.1 | 0.00 | 0.00 | 0.00 | 55 | 1009.0 |
| 20260506163042 | 20 | 200 | 4.8 | 14.5 | 0.00 | 0.00 | 0.00 | 62 | 1008.9 |
| 20260506162952 | 20 | 239 | 9.7 | 20.9 | 0.00 | 0.00 | 0.00 | 55 | 1009.0 |
| 20260506162449 | 21 | 237 | 8.0 | 22.5 | 0.00 | 0.00 | 0.00 | 54 | 1009.3 |
| 20260506161516 | 21 | 194 | 6.4 | 16.1 | 0.00 | 0.00 | 0.00 | 60 | 1009.2 |
| 20260506161443 | 21 | 237 | 11.3 | 27.4 | 0.00 | 0.00 | 0.00 | 53 | 1009.3 |
| 20260506160439 | 21 | 263 | 9.7 | 24.1 | 0.00 | 0.00 | 0.00 | 53 | 1009.4 |
| 20260506160023 | 21 | 213 | 6.4 | 19.3 | 0.00 | 0.00 | 0.00 | 61 | 1009.3 |
| 20260506155935 | 21 | 233 | 6.4 | 22.5 | 0.00 | 0.00 | 0.00 | 53 | 1009.4 |
| 20260506155434 | 20 | 316 | 9.7 | 27.4 | 0.00 | 0.00 | 0.00 | 54 | 1009.7 |
| 20260506154534 | 21 | 107 | 12.9 | 33.8 | 0.00 | 0.00 | 0.00 | 60 | 1009.6 |
| 20260506154423 | 21 | 246 | 11.3 | 22.5 | 0.00 | 0.00 | 0.00 | 53 | 1009.7 |
| 20260506153029 | 21 | 154 | 9.7 | 22.5 | 0.00 | 0.00 | 0.00 | 59 | 1009.6 |
| 20260506152855 | 21 | 312 | 9.7 | 24.1 | 0.00 | 0.00 | 0.00 | 52 | 1009.8 |
| 20260506152351 | 21 | 315 | 8.0 | 35.4 | 0.00 | 0.00 | 0.00 | 53 | 1009.9 |
| 20260506151849 | 21 | 248 | 8.0 | 35.4 | 0.00 | 0.00 | 0.00 | 52 | 1009.9 |
| 20260506151537 | 21 | 187 | 6.4 | 25.7 | 0.00 | 0.00 | 0.00 | 58 | 1009.6 |
| 20260506151349 | 21 | 295 | 9.7 | 24.1 | 0.00 | 0.00 | 0.00 | 54 | 1009.9 |
| 20260506150845 | 20 | 335 | 9.7 | 20.9 | 0.00 | 0.00 | 0.00 | 54 | 1009.9 |
| 20260506150346 | 20 | 342 | 8.0 | 20.9 | 0.00 | 0.00 | 0.00 | 55 | 1009.9 |
| 20260506150019 | 21 | 281 | 6.4 | 17.7 | 0.00 | 0.00 | 0.00 | 63 | 1009.7 |
| 20260506145339 | 20 | 267 | 9.7 | 16.1 | 0.00 | 0.00 | 0.00 | 57 | 1010.1 |
| 20260506144834 | 20 | 264 | 9.7 | 22.5 | 0.00 | 0.00 | 0.00 | 57 | 1010.1 |
| 20260506144522 | 20 | 214 | 11.3 | 20.9 | 0.00 | 0.00 | 0.00 | 64 | 1009.8 |
| 20260506144333 | 19 | 304 | 9.7 | 22.5 | 0.00 | 0.00 | 0.00 | 58 | 1010.2 |
| 20260506143833 | 19 | 295 | 9.7 | 22.5 | 0.00 | 0.00 | 0.00 | 58 | 1010.2 |
| 20260506143331 | 19 | 354 | 9.7 | 22.5 | 0.00 | 0.00 | 0.00 | 57 | 1010.2 |
| 20260506143027 | 19 | 178 | 6.4 | 22.5 | 0.00 | 0.00 | 0.00 | 64 | 1009.9 |
| 20260506142829 | 19 | 261 | 8.0 | 20.9 | 0.00 | 0.00 | 0.00 | 57 | 1009.8 |
| 20260506142325 | 19 | 309 | 8.0 | 20.9 | 0.00 | 0.00 | 0.00 | 58 | 1009.8 |
| 20260506141527 | 19 | 190 | 9.7 | 25.7 | 0.00 | 0.00 | 0.00 | 65 | 1009.6 |
| 20260506140819 | 19 | 268 | 9.7 | 27.4 | 0.00 | 0.00 | 0.00 | 57 | 1009.9 |
| 20260506140315 | 20 | 263 | 9.7 | 16.1 | 0.00 | 0.00 | 0.00 | 57 | 1009.9 |
| 20260506140033 | 20 | 189 | 4.8 | 16.1 | 0.00 | 0.00 | 0.00 | 66 | 1009.6 |
| 20260506135813 | 19 | 261 | 11.3 | 20.9 | 0.00 | 0.00 | 0.00 | 59 | 1009.9 |
| 20260506135310 | 19 | 289 | 11.3 | 20.9 | 0.00 | 0.00 | 0.00 | 58 | 1009.9 |
| 20260506134809 | 19 | 224 | 9.7 | 20.9 | 0.00 | 0.00 | 0.00 | 60 | 1009.9 |
| 20260506134524 | 19 | 250 | 4.8 | 29.0 | 0.00 | 0.00 | 0.00 | 66 | 1009.6 |
| 20260506134307 | 19 | 320 | 9.7 | 20.9 | 0.00 | 0.00 | 0.00 | 59 | 1010.1 |
| 20260506133801 | 19 | 258 | 9.7 | 20.9 | 0.00 | 0.00 | 0.00 | 60 | 1010.1 |
| 20260506133255 | 19 | 251 | 11.3 | 35.4 | 0.00 | 0.00 | 0.00 | 60 | 1010.1 |
| 20260506133025 | 19 | 172 | 6.4 | 25.7 | 0.00 | 0.00 | 0.00 | 67 | 1009.8 |
| 20260506132243 | 18 | 281 | 9.7 | 20.9 | 0.00 | 0.00 | 0.00 | 63 | 1010.5 |
| 20260506131741 | 18 | 301 | 11.3 | 22.5 | 0.00 | 0.00 | 0.00 | 64 | 1010.5 |
| 20260506131531 | 18 | 258 | 8.0 | 17.7 | 0.00 | 0.00 | 0.00 | 70 | 1010.2 |
| 20260506131239 | 18 | 277 | 9.7 | 22.5 | 0.00 | 0.00 | 0.00 | 66 | 1010.5 |
| 20260506130233 | 17 | 291 | 8.0 | 24.1 | 0.00 | 0.00 | 0.00 | 66 | 1010.5 |
| 20260506130030 | 17 | 259 | 8.0 | 16.1 | 0.00 | 0.00 | 0.00 | 73 | 1010.3 |
| 20260506125731 | 17 | 268 | 9.7 | 24.1 | 0.00 | 0.00 | 0.00 | 67 | 1010.5 |
| 20260506125232 | 17 | 319 | 8.0 | 14.5 | 0.00 | 0.00 | 0.00 | 67 | 1010.5 |
| 20260506124732 | 17 | 192 | 9.7 | 16.1 | 0.00 | 0.00 | 0.00 | 68 | 1010.5 |
| 20260506124519 | 17 | 271 | 1.6 | 20.9 | 0.00 | 0.00 | 0.00 | 74 | 1010.2 |
| 20260506124229 | 17 | 260 | 8.0 | 17.7 | 0.00 | 0.00 | 0.00 | 68 | 1010.6 |
| 20260506123723 | 17 | 250 | 4.8 | 17.7 | 0.00 | 0.00 | 0.00 | 69 | 1010.6 |
| 20260506123023 | 17 | 65 | 3.2 | 11.3 | 0.00 | 0.00 | 0.00 | 76 | 1010.2 |
| 20260506122717 | 16 | 271 | 9.7 | 24.1 | 0.00 | 0.00 | 0.00 | 69 | 1010.5 |
| 20260506122213 | 16 | 0 | 9.7 | 24.1 | 0.00 | 0.00 | 0.00 | 69 | 1010.5 |
| 20260506121713 | 16 | 260 | 8.0 | 20.9 | 0.00 | 0.00 | 0.00 | 69 | 1010.5 |
| 20260506121508 | 16 | 159 | 9.7 | 19.3 | 0.00 | 0.00 | 0.00 | 76 | 1010.1 |
| 20260506120159 | 16 | 315 | 8.0 | 20.9 | 0.00 | 0.00 | 0.00 | 72 | 1010.5 |
| 20260506120014 | 16 | 138 | 6.4 | 19.3 | 0.00 | 0.00 | 0.00 | 78 | 1010.1 |
| 20260506115641 | 16 | 342 | 8.0 | 20.9 | 0.00 | 0.00 | 0.00 | 72 | 1010.9 |
| 20260506115135 | 16 | 256 | 6.4 | 17.7 | 0.00 | 0.00 | 0.00 | 72 | 1010.9 |
| 20260506114629 | 15 | 323 | 4.8 | 12.9 | 0.00 | 0.00 | 0.00 | 74 | 1010.9 |
| 20260506114519 | 16 | 296 | 4.8 | 17.7 | 0.00 | 0.00 | 0.00 | 80 | 1010.5 |
| 20260506114123 | 15 | 330 | 6.4 | 16.1 | 0.00 | 0.00 | 0.00 | 74 | 1010.9 |
| 20260506113614 | 15 | 253 | 6.4 | 16.1 | 0.00 | 0.00 | 0.00 | 74 | 1010.9 |
| 20260506113109 | 15 | 256 | 4.8 | 16.1 | 0.00 | 0.00 | 0.00 | 74 | 1010.9 |
| 20260506113024 | 15 | 192 | 3.2 | 19.3 | 0.00 | 0.00 | 0.00 | 81 | 1010.5 |
| 20260506112105 | 15 | 287 | 6.4 | 20.9 | 0.00 | 0.00 | 0.00 | 74 | 1011.0 |
| 20260506111603 | 15 | 272 | 4.8 | 20.9 | 0.00 | 0.00 | 0.00 | 75 | 1011.0 |
| 20260506111530 | 15 | 331 | 6.4 | 17.7 | 0.00 | 0.00 | 0.00 | 81 | 1010.7 |
| 20260506110553 | 15 | 285 | 6.4 | 20.9 | 0.00 | 0.00 | 0.00 | 76 | 1010.9 |
| 20260506110051 | 15 | 316 | 6.4 | 20.9 | 0.00 | 0.00 | 0.00 | 76 | 1010.9 |
| 20260506110011 | 15 | 290 | 3.2 | 12.9 | 0.00 | 0.00 | 0.00 | 82 | 1010.6 |
| 20260506105551 | 15 | 278 | 6.4 | 17.7 | 0.00 | 0.00 | 0.00 | 76 | 1010.8 |
| 20260506105045 | 15 | 251 | 6.4 | 17.7 | 0.00 | 0.00 | 0.00 | 76 | 1010.8 |
| 20260506104543 | 14 | 256 | 4.8 | 16.1 | 0.00 | 0.00 | 0.00 | 76 | 1010.8 |
| 20260506104516 | 14 | 170 | 1.6 | 11.3 | 0.00 | 0.00 | 0.00 | 83 | 1010.5 |
| 20260506104043 | 14 | 232 | 6.4 | 17.7 | 0.00 | 0.00 | 0.00 | 76 | 1010.8 |
| 20260506103539 | 14 | 244 | 4.8 | 17.7 | 0.00 | 0.00 | 0.00 | 76 | 1010.8 |
| 20260506103033 | 15 | 241 | 4.8 | 16.1 | 0.00 | 0.00 | 0.00 | 76 | 1010.8 |
| 20260506103022 | 14 | 120 | 3.2 | 9.7 | 0.00 | 0.00 | 0.00 | 82 | 1010.5 |
| 20260506102532 | 15 | 287 | 4.8 | 16.1 | 0.00 | 0.00 | 0.00 | 76 | 1010.6 |
| 20260506102034 | 14 | 309 | 4.8 | 16.1 | 0.00 | 0.00 | 0.00 | 76 | 1010.6 |
| 20260506101530 | 14 | 254 | 4.8 | 16.1 | 0.00 | 0.00 | 0.00 | 76 | 1010.6 |
| 20260506101526 | 14 | 219 | 3.2 | 11.3 | 0.00 | 0.00 | 0.00 | 82 | 1010.4 |
| 20260506100515 | 14 | 247 | 4.8 | 16.1 | 0.00 | 0.00 | 0.00 | 76 | 1010.7 |
| 20260506100028 | 14 | 142 | 1.6 | 8.0 | 0.00 | 0.00 | 0.00 | 82 | 1010.6 |
| 20260506100014 | 14 | 257 | 4.8 | 14.5 | 0.00 | 0.00 | 0.00 | 76 | 1010.7 |
| 20260506095511 | 14 | 250 | 3.2 | 12.9 | 0.00 | 0.00 | 0.00 | 76 | 1010.5 |
| 20260506094955 | 15 | 247 | 3.2 | 12.9 | 0.00 | 0.00 | 0.00 | 75 | 1010.5 |
| 20260506094512 | 14 | 159 | 4.8 | 12.9 | 0.00 | 0.00 | 0.00 | 82 | 1010.4 |
| 20260506094454 | 14 | 274 | 4.8 | 16.1 | 0.00 | 0.00 | 0.00 | 75 | 1010.5 |
| 20260506093951 | 15 | 305 | 6.4 | 16.1 | 0.00 | 0.00 | 0.00 | 75 | 1010.4 |
| 20260506093451 | 15 | 318 | 6.4 | 16.1 | 0.00 | 0.00 | 0.00 | 75 | 1010.4 |
| 20260506093022 | 14 | 148 | 1.6 | 9.7 | 0.00 | 0.00 | 0.00 | 82 | 1010.3 |
| 20260506092945 | 15 | 241 | 6.4 | 16.1 | 0.00 | 0.00 | 0.00 | 75 | 1010.4 |
| 20260506092446 | 15 | 292 | 6.4 | 17.7 | 0.00 | 0.00 | 0.00 | 76 | 1010.5 |
| 20260506091924 | 15 | 333 | 6.4 | 17.7 | 0.00 | 0.00 | 0.00 | 75 | 1010.5 |
| 20260506091524 | 14 | 264 | 3.2 | 22.5 | 0.00 | 0.00 | 0.00 | 81 | 1010.4 |
| 20260506090416 | 15 | 304 | 4.8 | 14.5 | 0.00 | 0.00 | 0.00 | 75 | 1010.6 |
| 20260506090027 | 14 | 47 | 3.2 | 14.5 | 0.00 | 0.00 | 0.00 | 81 | 1010.4 |
| 20260506085913 | 15 | 282 | 4.8 | 12.9 | 0.00 | 0.00 | 0.00 | 75 | 1010.6 |
| 20260506085412 | 15 | 302 | 6.4 | 17.7 | 0.00 | 0.00 | 0.00 | 75 | 1010.7 |
| 20260506084910 | 15 | 311 | 8.0 | 17.7 | 0.00 | 0.00 | 0.00 | 74 | 1010.7 |
| 20260506084512 | 14 | 160 | 6.4 | 16.1 | 0.00 | 0.00 | 0.00 | 81 | 1010.4 |
| 20260506084406 | 15 | 278 | 8.0 | 24.1 | 0.00 | 0.00 | 0.00 | 74 | 1010.7 |
| 20260506083903 | 15 | 289 | 6.4 | 24.1 | 0.00 | 0.00 | 0.00 | 74 | 1010.8 |
| 20260506083357 | 15 | 323 | 4.8 | 16.1 | 0.00 | 0.00 | 0.00 | 74 | 1010.8 |
| 20260506083019 | 14 | 204 | 6.4 | 17.7 | 0.00 | 0.00 | 0.00 | 81 | 1010.7 |
| 20260506082337 | 15 | 322 | 8.0 | 20.9 | 0.00 | 0.00 | 0.00 | 73 | 1010.8 |
| 20260506081831 | 15 | 340 | 9.7 | 20.9 | 0.00 | 0.00 | 0.00 | 73 | 1010.8 |
| 20260506081522 | 15 | 285 | 3.2 | 17.7 | 0.00 | 0.00 | 0.00 | 80 | 1010.7 |
| 20260506080319 | 15 | 294 | 6.4 | 20.9 | 0.00 | 0.00 | 0.00 | 73 | 1010.8 |
| 20260506073302 | 15 | 312 | 8.0 | 27.4 | 0.00 | 0.00 | 0.00 | 73 | 1010.9 |
| 20260506073014 | 15 | 214 | 4.8 | 19.3 | 0.00 | 0.00 | 0.00 | 79 | 1010.7 |
| 20260506072801 | 15 | 287 | 9.7 | 24.1 | 0.00 | 0.00 | 0.00 | 72 | 1010.7 |
| 20260506072256 | 15 | 250 | 8.0 | 24.1 | 0.00 | 0.00 | 0.00 | 72 | 1010.7 |
| 20260506071521 | 15 | 110 | 1.6 | 25.7 | 0.00 | 0.00 | 0.00 | 78 | 1010.6 |
| 20260506071252 | 15 | 289 | 8.0 | 32.2 | 0.00 | 0.00 | 0.00 | 72 | 1010.7 |
| 20260506070749 | 15 | 304 | 8.0 | 27.4 | 0.00 | 0.00 | 0.00 | 71 | 1010.7 |
| 20260506070241 | 15 | 256 | 8.0 | 24.1 | 0.00 | 0.00 | 0.00 | 71 | 1010.7 |
| 20260506061714 | 16 | 232 | 9.7 | 27.4 | 0.00 | 0.00 | 0.00 | 68 | 1010.5 |
| 20260506061518 | 15 | 312 | 4.8 | 16.1 | 0.00 | 0.00 | 0.00 | 75 | 1010.5 |
| 20260506061209 | 16 | 302 | 9.7 | 22.5 | 0.00 | 0.00 | 0.00 | 68 | 1010.5 |
| 20260506060204 | 16 | 0 | 11.3 | 32.2 | 0.00 | 0.00 | 0.00 | 67 | 1010.5 |
| 20260506051152 | 17 | 332 | 11.3 | 24.1 | 0.00 | 0.00 | 0.00 | 63 | 1010.9 |
| 20260506050653 | 17 | 278 | 11.3 | 27.4 | 0.00 | 0.00 | 0.00 | 63 | 1010.9 |
| 20260506050152 | 17 | 4 | 9.7 | 27.4 | 0.00 | 0.00 | 0.00 | 62 | 1010.9 |
| 20260506044510 | 16 | 179 | 3.2 | 17.7 | 0.00 | 0.00 | 0.00 | 69 | 1010.9 |
| 20260506044124 | 17 | 258 | 9.7 | 33.8 | 0.00 | 0.00 | 0.00 | 62 | 1011.2 |
| 20260506043616 | 17 | 268 | 9.7 | 33.8 | 0.00 | 0.00 | 0.00 | 62 | 1011.2 |
| 20260506043114 | 17 | 301 | 9.7 | 25.7 | 0.00 | 0.00 | 0.00 | 62 | 1011.2 |
| 20260506043008 | 16 | 99 | 3.2 | 19.3 | 0.00 | 0.00 | 0.00 | 68 | 1011.2 |
| 20260506042614 | 17 | 312 | 11.3 | 24.1 | 0.00 | 0.00 | 0.00 | 61 | 1011.1 |
| 20260506042114 | 17 | 281 | 11.3 | 22.5 | 0.00 | 0.00 | 0.00 | 61 | 1011.1 |
| 20260506041612 | 17 | 304 | 11.3 | 27.4 | 0.00 | 0.00 | 0.00 | 60 | 1011.1 |
| 20260506041519 | 17 | 150 | 4.8 | 22.5 | 0.00 | 0.00 | 0.00 | 67 | 1011.1 |
| 20260506041110 | 17 | 301 | 11.3 | 27.4 | 0.00 | 0.00 | 0.00 | 60 | 1011.1 |
| 20260506040610 | 17 | 325 | 9.7 | 33.8 | 0.00 | 0.00 | 0.00 | 60 | 1011.1 |
| 20260506040018 | 17 | 199 | 3.2 | 25.7 | 0.00 | 0.00 | 0.00 | 66 | 1011.0 |
| 20260506035102 | 17 | 301 | 11.3 | 24.1 | 0.00 | 0.00 | 0.00 | 59 | 1011.0 |
| 20260506034533 | 16 | 167 | 6.4 | 19.3 | 0.00 | 0.00 | 0.00 | 66 | 1010.8 |
| 20260506034050 | 17 | 333 | 11.3 | 24.1 | 0.00 | 0.00 | 0.00 | 59 | 1011.0 |
| 20260506033546 | 17 | 0 | 11.3 | 24.1 | 0.00 | 0.00 | 0.00 | 59 | 1011.0 |
| 20260506033044 | 17 | 289 | 8.0 | 20.9 | 0.00 | 0.00 | 0.00 | 59 | 1011.0 |
| 20260506033007 | 16 | 69 | 3.2 | 17.7 | 0.00 | 0.00 | 0.00 | 66 | 1011.0 |
| 20260506032543 | 17 | 302 | 8.0 | 20.9 | 0.00 | 0.00 | 0.00 | 59 | 1011.0 |
| 20260506032040 | 17 | 230 | 8.0 | 20.9 | 0.00 | 0.00 | 0.00 | 59 | 1011.0 |
| 20260506031538 | 17 | 323 | 9.7 | 20.9 | 0.00 | 0.00 | 0.00 | 58 | 1011.0 |
| 20260506031513 | 16 | 296 | 6.4 | 20.9 | 0.00 | 0.00 | 0.00 | 65 | 1010.9 |
| 20260506031034 | 17 | 319 | 9.7 | 29.0 | 0.00 | 0.00 | 0.00 | 58 | 1011.0 |
| 20260506030532 | 17 | 308 | 9.7 | 29.0 | 0.00 | 0.00 | 0.00 | 58 | 1011.0 |
| 20260506030032 | 17 | 320 | 9.7 | 24.1 | 0.00 | 0.00 | 0.00 | 58 | 1011.0 |
| 20260506030015 | 16 | 284 | 4.8 | 24.1 | 0.00 | 0.00 | 0.00 | 65 | 1010.8 |
| 20260506025534 | 17 | 0 | 9.7 | 24.1 | 0.00 | 0.00 | 0.00 | 58 | 1011.1 |
| 20260506025032 | 17 | 243 | 9.7 | 20.9 | 0.00 | 0.00 | 0.00 | 57 | 1011.1 |
| 20260506024532 | 17 | 296 | 9.7 | 20.9 | 0.00 | 0.00 | 0.00 | 57 | 1011.1 |
| 20260506024519 | 16 | 59 | 6.4 | 16.1 | 0.00 | 0.00 | 0.00 | 65 | 1010.8 |
| 20260506024030 | 17 | 295 | 8.0 | 20.9 | 0.00 | 0.00 | 0.00 | 58 | 1011.0 |
| 20260506023530 | 17 | 356 | 8.0 | 16.1 | 0.00 | 0.00 | 0.00 | 57 | 1011.0 |
| 20260506023026 | 16 | 207 | 3.2 | 19.3 | 0.00 | 0.00 | 0.00 | 65 | 1010.8 |
| 20260506023024 | 17 | 332 | 8.0 | 20.9 | 0.00 | 0.00 | 0.00 | 57 | 1011.0 |
| 20260506022522 | 16 | 299 | 9.7 | 24.1 | 0.00 | 0.00 | 0.00 | 58 | 1011.1 |
| 20260506022020 | 17 | 298 | 9.7 | 24.1 | 0.00 | 0.00 | 0.00 | 58 | 1011.1 |
| 20260506021507 | 16 | 112 | 4.8 | 19.3 | 0.00 | 0.00 | 0.00 | 65 | 1010.7 |
| 20260506021014 | 16 | 356 | 9.7 | 32.2 | 0.00 | 0.00 | 0.00 | 58 | 1011.1 |
| 20260506020515 | 17 | 340 | 11.3 | 32.2 | 0.00 | 0.00 | 0.00 | 58 | 1011.1 |
| 20260506020014 | 16 | 179 | 6.4 | 17.7 | 0.00 | 0.00 | 0.00 | 65 | 1010.7 |
| 20260506020010 | 17 | 318 | 11.3 | 27.4 | 0.00 | 0.00 | 0.00 | 57 | 1011.1 |
| 20260506015506 | 16 | 337 | 12.9 | 35.4 | 0.00 | 0.00 | 0.00 | 57 | 1011.0 |
| 20260506015004 | 16 | 320 | 11.3 | 35.4 | 0.00 | 0.00 | 0.00 | 58 | 1011.0 |
| 20260506014523 | 16 | 249 | 6.4 | 19.3 | 0.00 | 0.00 | 0.00 | 65 | 1010.6 |
| 20260506014502 | 16 | 339 | 9.7 | 27.4 | 0.00 | 0.00 | 0.00 | 58 | 1011.0 |
| 20260506014001 | 16 | 326 | 9.7 | 27.4 | 0.00 | 0.00 | 0.00 | 57 | 1011.0 |
| 20260506013501 | 16 | 260 | 9.7 | 22.5 | 0.00 | 0.00 | 0.00 | 58 | 1011.0 |
| 20260506013036 | 16 | 204 | 8.0 | 19.3 | 0.00 | 0.00 | 0.00 | 64 | 1010.6 |
| 20260506012958 | 16 | 256 | 9.7 | 22.5 | 0.00 | 0.00 | 0.00 | 58 | 1011.0 |
| 20260506012453 | 16 | 248 | 9.7 | 20.9 | 0.00 | 0.00 | 0.00 | 57 | 1010.8 |
| 20260506011941 | 16 | 256 | 9.7 | 24.1 | 0.00 | 0.00 | 0.00 | 57 | 1010.8 |
| 20260506011528 | 16 | 330 | 6.4 | 16.1 | 0.00 | 0.00 | 0.00 | 64 | 1010.5 |
| 20260506011434 | 16 | 352 | 9.7 | 25.7 | 0.00 | 0.00 | 0.00 | 57 | 1010.8 |
| 20260506010926 | 16 | 305 | 9.7 | 25.7 | 0.00 | 0.00 | 0.00 | 57 | 1010.5 |
| 20260506010412 | 16 | 241 | 8.0 | 20.9 | 0.00 | 0.00 | 0.00 | 57 | 1010.5 |
| 20260506010014 | 16 | 286 | 4.8 | 17.7 | 0.00 | 0.00 | 0.00 | 63 | 1010.3 |
| 20260506005401 | 17 | 302 | 9.7 | 22.5 | 0.00 | 0.00 | 0.00 | 56 | 1010.5 |
| 20260506004847 | 17 | 240 | 8.0 | 20.9 | 0.00 | 0.00 | 0.00 | 56 | 1010.5 |
| 20260506004518 | 16 | 258 | 4.8 | 24.1 | 0.00 | 0.00 | 0.00 | 63 | 1010.2 |
| 20260506004340 | 17 | 333 | 9.7 | 20.9 | 0.00 | 0.00 | 0.00 | 55 | 1010.2 |
| 20260506003835 | 17 | 333 | 9.7 | 20.9 | 0.00 | 0.00 | 0.00 | 55 | 1010.2 |
| 20260506003334 | 17 | 0 | 9.7 | 20.9 | 0.00 | 0.00 | 0.00 | 55 | 1010.2 |
| 20260506003024 | 17 | 289 | 4.8 | 20.9 | 0.00 | 0.00 | 0.00 | 62 | 1010.1 |
| 20260506002323 | 17 | 304 | 9.7 | 24.1 | 0.00 | 0.00 | 0.00 | 54 | 1010.0 |
| 20260506001819 | 17 | 254 | 9.7 | 24.1 | 0.00 | 0.00 | 0.00 | 55 | 1010.0 |
| 20260506001522 | 17 | 184 | 3.2 | 17.7 | 0.00 | 0.00 | 0.00 | 61 | 1009.9 |
| 20260506001312 | 17 | 356 | 9.7 | 20.9 | 0.00 | 0.00 | 0.00 | 54 | 1009.9 |
| 20260506000806 | 17 | 306 | 9.7 | 24.1 | 0.00 | 0.00 | 0.00 | 54 | 1009.9 |
| 20260506000306 | 17 | 343 | 9.7 | 24.1 | 0.00 | 0.00 | 0.00 | 53 | 1009.9 |
| 20260506000007 | 17 | 101 | 4.8 | 20.9 | 0.00 | 0.00 | 0.00 | 61 | 1009.6 |
| 20260505235804 | 18 | 335 | 6.4 | 16.1 | 0.00 | 0.00 | 0.00 | 53 | 1009.6 |
| 20260505235254 | 18 | 271 | 6.4 | 16.1 | 0.00 | 0.00 | 0.00 | 52 | 1009.6 |
| 20260505234753 | 18 | 339 | 8.0 | 16.1 | 0.00 | 0.00 | 0.00 | 52 | 1009.6 |
| 20260505234512 | 18 | 290 | 3.2 | 12.9 | 0.00 | 0.00 | 0.00 | 59 | 1009.3 |
| 20260505234244 | 18 | 304 | 9.7 | 20.9 | 0.00 | 0.00 | 0.00 | 51 | 1009.3 |
| 20260505233026 | 18 | 173 | 6.4 | 22.5 | 0.00 | 0.00 | 0.00 | 56 | 1009.0 |
| 20260505232729 | 19 | 282 | 8.0 | 24.1 | 0.00 | 0.00 | 0.00 | 49 | 1009.3 |
| 20260505231524 | 19 | 304 | 8.0 | 22.5 | 0.00 | 0.00 | 0.00 | 55 | 1009.0 |
| 20260505231224 | 20 | 295 | 8.0 | 24.1 | 0.00 | 0.00 | 0.00 | 47 | 1008.9 |
| 20260505230720 | 20 | 301 | 9.7 | 24.1 | 0.00 | 0.00 | 0.00 | 47 | 1008.9 |
| 20260505230220 | 20 | 304 | 8.0 | 20.9 | 0.00 | 0.00 | 0.00 | 45 | 1008.9 |
| 20260505230025 | 20 | 270 | 8.0 | 17.7 | 0.00 | 0.00 | 0.00 | 52 | 1008.7 |
| 20260505225714 | 20 | 291 | 8.0 | 16.1 | 0.00 | 0.00 | 0.00 | 44 | 1008.5 |
| 20260505225156 | 21 | 248 | 9.7 | 16.1 | 0.00 | 0.00 | 0.00 | 43 | 1008.5 |
| 20260505224652 | 21 | 272 | 11.3 | 32.2 | 0.00 | 0.00 | 0.00 | 42 | 1008.5 |
| 20260505224514 | 21 | 115 | 6.4 | 20.9 | 0.00 | 0.00 | 0.00 | 49 | 1008.3 |
| 20260505224148 | 21 | 301 | 11.3 | 32.2 | 0.00 | 0.00 | 0.00 | 42 | 1008.3 |
| 20260505223640 | 21 | 323 | 9.7 | 20.9 | 0.00 | 0.00 | 0.00 | 41 | 1008.3 |
| 20260505223016 | 21 | 153 | 9.7 | 24.1 | 0.00 | 0.00 | 0.00 | 47 | 1008.1 |
| 20260505221556 | 22 | 210 | 12.9 | 35.4 | 0.00 | 0.00 | 0.00 | 39 | 1008.3 |
| 20260505221522 | 22 | 223 | 6.4 | 25.7 | 0.00 | 0.00 | 0.00 | 46 | 1008.1 |
| 20260505221051 | 22 | 318 | 11.3 | 29.0 | 0.00 | 0.00 | 0.00 | 39 | 1008.3 |
| 20260505220552 | 22 | 0 | 9.7 | 29.0 | 0.00 | 0.00 | 0.00 | 39 | 1008.3 |
| 20260505220037 | 22 | 279 | 6.4 | 32.2 | 0.00 | 0.00 | 0.00 | 46 | 1008.0 |
| 20260505220032 | 22 | 339 | 12.9 | 29.0 | 0.00 | 0.00 | 0.00 | 39 | 1008.3 |
| 20260505215524 | 22 | 323 | 11.3 | 29.0 | 0.00 | 0.00 | 0.00 | 37 | 1008.3 |
| 20260505215019 | 22 | 229 | 9.7 | 27.4 | 0.00 | 0.00 | 0.00 | 39 | 1008.3 |
| 20260505214534 | 22 | 78 | 3.2 | 25.7 | 0.00 | 0.00 | 0.00 | 46 | 1008.0 |
| 20260505213512 | 23 | 349 | 12.9 | 27.4 | 0.00 | 0.00 | 0.00 | 37 | 1008.2 |
| 20260505213014 | 23 | 286 | 6.4 | 20.9 | 0.00 | 0.00 | 0.00 | 46 | 1007.8 |
| 20260505213008 | 23 | 0 | 12.9 | 24.1 | 0.00 | 0.00 | 0.00 | 37 | 1008.2 |
| 20260505212504 | 23 | 298 | 11.3 | 24.1 | 0.00 | 0.00 | 0.00 | 37 | 1008.2 |